GEFSMW_prec_meanprecacc_252.txt.gz
Total_Precipitation_Accumulation
1.91 2.34 2.64 3.20 3.81 4.19 4.57 4.73 4.74 4.63 4.43 4.04 3.71 3.46 3.24 3.05 2.80 2.63 2.57 2.45 2.33 2.48 2.89 2.76 2.99 2.94 2.90 2.91 2.96 3.06 2.96 2.60 2.76 2.81 2.32 1.77 1.40 1.41 1.24 1.19 1.23 1.28 1.30
1.81 2.34 2.64 2.85 3.32 3.84 4.29 4.59 4.74 4.62 4.23 3.83 3.62 3.48 3.42 3.04 2.74 2.71 2.79 2.65 2.65 2.69 2.72 2.89 2.86 2.92 3.01 2.93 2.90 2.99 2.80 2.42 2.61 2.86 2.90 2.23 1.83 1.43 1.07 1.19 1.29 1.40 1.51
2.08 2.34 2.53 2.70 2.98 3.37 3.68 3.80 3.95 3.92 3.76 3.78 3.78 3.70 3.65 3.19 3.07 3.06 3.05 2.87 2.87 2.89 2.89 2.86 2.79 2.78 2.61 2.64 2.67 2.69 2.70 2.59 2.50 2.75 3.04 2.58 2.08 1.75 1.27 1.20 1.26 1.45 1.67
1.72 1.87 2.18 2.51 2.68 2.91 3.26 3.49 3.55 3.50 3.41 3.51 3.56 3.42 3.21 3.04 3.14 3.41 3.36 3.10 2.88 2.73 2.54 2.48 2.60 2.60 2.43 2.43 2.12 2.25 2.44 2.44 2.27 2.49 2.54 2.54 2.52 2.41 1.76 1.36 1.22 1.38 1.58
1.46 1.57 1.78 2.10 2.21 2.52 2.81 3.06 3.32 3.41 3.36 3.41 3.34 3.35 3.23 3.21 3.24 3.19 3.18 2.96 2.77 2.45 2.13 2.14 2.28 2.28 2.19 2.10 2.01 2.17 2.07 2.00 2.00 2.22 2.41 2.47 2.50 2.40 2.25 1.86 1.75 1.70 1.59
1.31 1.50 1.65 1.88 2.01 2.16 2.28 2.41 2.63 2.92 3.09 3.14 3.12 3.15 3.09 3.07 2.98 2.88 2.74 2.55 2.39 2.12 1.85 1.76 1.94 2.07 2.06 2.01 1.99 2.07 1.97 1.98 2.10 2.08 2.15 2.37 2.35 2.32 2.46 2.12 1.95 1.89 1.64
1.02 1.24 1.37 1.49 1.62 1.75 1.85 1.97 2.17 2.51 2.68 2.68 2.67 2.78 2.83 2.85 2.76 2.71 2.56 2.36 2.12 1.82 1.76 1.78 1.87 1.92 1.96 1.85 1.92 1.99 2.01 2.13 2.19 2.11 2.04 2.17 2.21 2.31 2.48 2.42 2.18 2.08 1.87
0.79 0.94 1.15 1.37 1.43 1.46 1.59 1.73 1.95 2.19 2.30 2.25 2.38 2.59 2.66 2.76 2.64 2.67 2.43 2.18 1.96 1.85 1.90 1.89 1.78 1.72 1.81 1.72 1.97 1.91 1.95 2.12 2.15 1.94 2.17 2.22 2.24 2.48 2.64 2.70 2.75 2.51 2.24
0.76 0.83 0.92 1.09 1.14 1.20 1.32 1.47 1.82 2.10 2.21 2.24 2.38 2.49 2.56 2.55 2.46 2.37 2.21 1.99 1.98 1.92 2.02 1.99 1.89 1.79 1.85 1.97 2.22 2.16 2.13 2.32 2.26 2.22 2.40 2.36 2.32 2.46 2.56 2.72 2.86 2.91 2.61
0.56 0.64 0.69 0.80 0.92 1.12 1.38 1.53 1.66 1.96 2.08 2.09 2.18 2.21 2.38 2.34 2.23 2.16 2.00 1.84 1.74 1.78 1.94 2.07 2.01 1.94 1.97 2.12 2.28 2.29 2.45 2.57 2.51 2.55 2.64 2.59 2.45 2.53 2.60 2.62 2.79 3.02 2.94
0.46 0.52 0.65 0.80 0.97 1.12 1.29 1.37 1.41 1.57 1.71 1.81 1.99 1.98 1.97 2.07 2.14 2.01 1.79 1.71 1.68 1.72 1.80 2.00 2.07 2.02 2.06 2.16 2.21 2.19 2.48 2.58 2.56 2.52 2.51 2.47 2.55 2.55 2.47 2.56 2.72 2.96 3.00
0.52 0.56 0.74 0.90 1.03 1.18 1.21 1.20 1.25 1.38 1.53 1.71 1.90 1.98 1.99 2.03 2.03 1.90 1.72 1.66 1.67 1.75 1.83 1.96 1.97 1.89 1.90 2.08 2.12 2.19 2.44 2.55 2.45 2.42 2.41 2.23 2.26 2.30 2.18 2.28 2.36 2.49 2.69
0.64 0.74 0.82 0.85 0.88 0.98 1.09 1.06 1.06 1.21 1.39 1.61 1.95 2.11 2.11 2.04 1.97 1.80 1.59 1.54 1.59 1.71 1.77 1.78 1.80 1.85 1.95 2.04 2.06 2.07 2.09 2.11 2.18 2.36 2.45 2.27 2.26 2.13 2.10 2.12 2.08 2.14 2.27
0.71 0.82 0.82 0.88 0.87 0.85 0.94 0.93 0.98 1.08 1.31 1.51 1.71 1.81 1.72 1.68 1.68 1.61 1.51 1.47 1.51 1.59 1.67 1.74 1.82 1.87 1.92 1.95 2.02 2.06 2.01 1.99 2.04 2.16 2.21 2.18 2.14 2.06 2.13 2.03 1.99 2.04 2.17
0.65 0.73 0.73 0.77 0.80 0.81 0.89 0.84 0.84 0.89 1.02 1.20 1.32 1.46 1.46 1.44 1.43 1.48 1.53 1.56 1.65 1.65 1.71 1.77 1.79 1.79 1.78 1.68 1.70 1.77 1.79 1.93 1.89 1.81 1.82 1.82 1.86 1.86 1.87 1.74 1.85 2.02 2.11
0.46 0.44 0.61 0.70 0.66 0.65 0.69 0.64 0.70 0.83 0.97 1.07 1.18 1.38 1.51 1.54 1.54 1.58 1.66 1.71 1.71 1.72 1.75 1.72 1.76 1.75 1.50 1.63 1.62 1.62 1.75 1.85 1.83 1.73 1.63 1.56 1.55 1.49 1.49 1.47 1.54 1.76 1.93
0.41 0.35 0.43 0.58 0.57 0.58 0.59 0.69 0.82 0.95 1.07 1.21 1.35 1.52 1.62 1.71 1.72 1.68 1.78 1.75 1.76 1.80 1.77 1.70 1.68 1.72 1.76 1.77 1.60 1.46 1.47 1.59 1.62 1.59 1.57 1.42 1.33 1.46 1.42 1.45 1.44 1.46 1.59
0.41 0.36 0.38 0.43 0.49 0.56 0.63 0.78 1.05 1.27 1.31 1.46 1.64 1.74 1.84 1.81 1.79 1.78 1.81 1.88 1.95 1.97 1.93 1.87 1.79 1.79 1.78 1.72 1.50 1.48 1.43 1.47 1.50 1.53 1.56 1.56 1.48 1.50 1.60 1.58 1.51 1.40 1.37
0.44 0.44 0.43 0.49 0.59 0.63 0.68 0.89 1.11 1.36 1.49 1.55 1.68 1.85 1.95 1.99 2.01 2.03 1.98 2.03 2.11 2.06 1.98 1.94 1.98 1.93 1.95 1.98 1.77 1.74 1.60 1.63 1.65 1.69 1.69 1.68 1.59 1.68 1.61 1.55 1.53 1.47 1.44
0.55 0.55 0.56 0.65 0.80 0.90 0.94 1.08 1.19 1.34 1.51 1.59 1.71 1.89 2.11 2.17 2.20 2.34 2.41 2.33 2.28 2.14 2.14 2.14 2.13 2.15 2.18 2.38 2.16 1.96 1.81 1.84 1.86 1.94 1.93 1.94 1.76 1.73 1.63 1.50 1.52 1.51 1.52
0.67 0.65 0.67 0.79 0.99 1.13 1.19 1.28 1.42 1.52 1.54 1.63 1.76 1.95 2.14 2.24 2.31 2.47 2.53 2.49 2.44 2.40 2.34 2.27 2.30 2.29 2.31 2.46 2.22 2.02 1.90 1.97 2.10 2.09 1.98 2.02 1.97 1.76 1.72 1.64 1.58 1.57 1.55
0.77 0.78 0.83 0.97 1.19 1.36 1.32 1.37 1.44 1.48 1.53 1.55 1.67 1.80 1.97 2.02 2.11 2.36 2.44 2.50 2.52 2.47 2.38 2.31 2.19 2.21 2.21 2.16 2.05 1.95 1.90 1.98 2.09 2.15 2.05 2.00 1.93 1.67 1.56 1.43 1.42 1.42 1.31
0.82 0.85 0.91 1.11 1.36 1.51 1.53 1.59 1.48 1.54 1.57 1.60 1.73 1.87 1.95 2.02 2.14 2.23 2.25 2.32 2.40 2.36 2.25 2.22 2.15 2.12 2.14 2.12 1.88 1.66 1.64 1.66 1.70 1.84 1.93 1.83 1.70 1.47 1.27 1.22 1.19 1.09 0.97
0.77 0.81 0.90 0.99 1.10 1.30 1.47 1.56 1.61 1.66 1.66 1.68 1.73 1.81 1.93 1.94 1.98 2.11 2.20 2.30 2.41 2.48 2.37 2.26 2.17 2.14 2.08 1.96 1.76 1.56 1.47 1.56 1.65 1.73 1.76 1.62 1.51 1.32 1.19 1.11 1.01 0.94 0.98
0.80 0.82 0.90 0.91 0.97 1.07 1.19 1.28 1.38 1.49 1.54 1.57 1.62 1.67 1.70 1.78 1.87 1.92 2.00 2.02 2.12 2.13 2.11 2.06 2.04 2.02 1.96 1.79 1.68 1.54 1.42 1.49 1.61 1.67 1.70 1.58 1.54 1.46 1.33 1.24 1.17 1.14 1.14
0.87 0.88 0.89 0.86 0.89 0.96 1.12 1.23 1.33 1.46 1.57 1.64 1.66 1.59 1.55 1.61 1.66 1.70 1.69 1.70 1.65 1.66 1.62 1.63 1.63 1.59 1.52 1.38 1.24 1.21 1.21 1.25 1.37 1.43 1.56 1.64 1.60 1.55 1.46 1.33 1.22 1.17 1.13

GEFSMW_prec_meanprecacc_258.txt.gz
Total_Precipitation_Accumulation
1.91 2.34 2.65 3.20 3.81 4.19 4.58 4.74 4.75 4.66 4.47 4.08 3.76 3.51 3.28 3.08 2.84 2.66 2.58 2.48 2.37 2.54 2.94 2.80 3.03 2.98 2.95 2.97 3.03 3.14 3.03 2.68 2.85 2.91 2.42 1.85 1.46 1.47 1.28 1.24 1.29 1.33 1.35
1.81 2.34 2.64 2.86 3.33 3.84 4.30 4.59 4.74 4.64 4.26 3.87 3.66 3.53 3.47 3.07 2.77 2.73 2.83 2.69 2.70 2.74 2.76 2.92 2.90 2.96 3.05 2.98 2.96 3.06 2.87 2.49 2.69 2.97 3.02 2.34 1.91 1.50 1.12 1.24 1.35 1.46 1.57
2.08 2.34 2.54 2.70 2.98 3.37 3.68 3.80 3.96 3.93 3.77 3.80 3.80 3.73 3.68 3.23 3.12 3.12 3.10 2.92 2.92 2.94 2.93 2.91 2.84 2.83 2.65 2.68 2.72 2.75 2.77 2.66 2.57 2.84 3.15 2.70 2.17 1.83 1.33 1.24 1.30 1.50 1.74
1.72 1.87 2.19 2.51 2.69 2.91 3.26 3.49 3.56 3.51 3.42 3.52 3.57 3.44 3.23 3.07 3.18 3.47 3.43 3.16 2.94 2.78 2.59 2.52 2.67 2.69 2.48 2.47 2.17 2.30 2.50 2.51 2.36 2.59 2.63 2.64 2.61 2.51 1.84 1.42 1.29 1.44 1.63
1.46 1.57 1.78 2.10 2.21 2.52 2.81 3.06 3.33 3.42 3.37 3.42 3.35 3.37 3.24 3.24 3.27 3.24 3.24 3.04 2.84 2.51 2.19 2.20 2.36 2.36 2.27 2.16 2.06 2.21 2.12 2.05 2.09 2.31 2.49 2.55 2.57 2.48 2.32 1.92 1.83 1.77 1.65
1.31 1.50 1.65 1.89 2.01 2.16 2.28 2.41 2.64 2.92 3.09 3.15 3.13 3.15 3.10 3.09 3.01 2.91 2.78 2.58 2.43 2.17 1.91 1.83 2.00 2.11 2.11 2.06 2.03 2.11 2.02 2.03 2.16 2.14 2.21 2.44 2.42 2.38 2.53 2.18 2.02 1.96 1.70
1.02 1.24 1.37 1.49 1.62 1.75 1.85 1.97 2.17 2.51 2.68 2.68 2.67 2.79 2.84 2.86 2.77 2.73 2.58 2.37 2.14 1.86 1.79 1.82 1.92 1.97 2.01 1.89 1.95 2.02 2.05 2.18 2.24 2.15 2.09 2.22 2.26 2.36 2.55 2.49 2.25 2.13 1.92
0.79 0.94 1.15 1.37 1.43 1.46 1.59 1.73 1.95 2.19 2.30 2.25 2.38 2.59 2.67 2.77 2.65 2.67 2.44 2.19 1.98 1.87 1.92 1.91 1.80 1.74 1.85 1.75 1.99 1.93 1.97 2.15 2.19 1.98 2.20 2.25 2.27 2.52 2.68 2.76 2.82 2.58 2.32
0.76 0.83 0.92 1.10 1.15 1.20 1.32 1.47 1.82 2.10 2.21 2.24 2.39 2.49 2.57 2.56 2.46 2.38 2.21 2.01 2.00 1.94 2.04 2.01 1.90 1.80 1.87 1.99 2.24 2.18 2.15 2.34 2.29 2.24 2.42 2.40 2.36 2.50 2.61 2.79 2.95 3.02 2.72
0.56 0.64 0.70 0.80 0.92 1.13 1.38 1.53 1.67 1.96 2.08 2.10 2.18 2.22 2.39 2.34 2.24 2.17 2.00 1.85 1.76 1.79 1.95 2.09 2.02 1.95 1.98 2.14 2.31 2.31 2.47 2.60 2.54 2.58 2.68 2.63 2.49 2.59 2.66 2.68 2.87 3.09 3.00
0.46 0.52 0.66 0.80 0.97 1.12 1.30 1.37 1.41 1.58 1.71 1.82 2.00 1.98 1.97 2.07 2.14 2.01 1.80 1.72 1.71 1.74 1.81 2.01 2.08 2.04 2.07 2.17 2.22 2.20 2.50 2.61 2.58 2.55 2.55 2.54 2.62 2.60 2.51 2.60 2.77 3.01 3.05
0.53 0.57 0.74 0.91 1.03 1.18 1.22 1.20 1.25 1.39 1.53 1.71 1.91 1.98 1.99 2.03 2.03 1.91 1.73 1.67 1.69 1.77 1.84 1.97 1.99 1.91 1.91 2.09 2.13 2.20 2.45 2.58 2.48 2.46 2.45 2.27 2.30 2.34 2.22 2.32 2.41 2.54 2.74
0.65 0.74 0.83 0.86 0.90 1.00 1.11 1.07 1.06 1.22 1.39 1.61 1.95 2.11 2.11 2.05 1.97 1.80 1.59 1.55 1.60 1.72 1.79 1.79 1.81 1.86 1.96 2.05 2.07 2.08 2.10 2.12 2.21 2.42 2.51 2.31 2.28 2.17 2.15 2.16 2.13 2.20 2.32
0.72 0.83 0.83 0.89 0.88 0.86 0.95 0.94 0.98 1.08 1.31 1.51 1.71 1.81 1.73 1.68 1.69 1.61 1.52 1.47 1.52 1.60 1.68 1.75 1.83 1.89 1.93 1.96 2.03 2.06 2.02 2.01 2.06 2.19 2.25 2.22 2.17 2.10 2.17 2.08 2.04 2.10 2.23
0.65 0.73 0.73 0.77 0.80 0.81 0.90 0.84 0.84 0.89 1.02 1.20 1.32 1.46 1.47 1.45 1.43 1.49 1.54 1.57 1.66 1.65 1.72 1.78 1.80 1.80 1.79 1.69 1.71 1.78 1.81 1.95 1.91 1.82 1.83 1.84 1.88 1.88 1.89 1.76 1.88 2.06 2.15
0.46 0.45 0.61 0.70 0.66 0.66 0.70 0.64 0.70 0.83 0.98 1.07 1.18 1.38 1.51 1.54 1.54 1.58 1.67 1.72 1.72 1.72 1.75 1.72 1.76 1.75 1.51 1.64 1.63 1.63 1.77 1.87 1.85 1.75 1.65 1.57 1.56 1.51 1.50 1.48 1.55 1.79 1.96
0.42 0.36 0.43 0.59 0.58 0.58 0.59 0.69 0.82 0.96 1.07 1.21 1.35 1.52 1.62 1.71 1.73 1.69 1.79 1.76 1.77 1.81 1.78 1.70 1.69 1.73 1.77 1.78 1.62 1.48 1.48 1.61 1.65 1.61 1.59 1.43 1.34 1.47 1.43 1.46 1.45 1.47 1.60
0.42 0.37 0.38 0.43 0.50 0.56 0.64 0.78 1.05 1.27 1.32 1.46 1.65 1.74 1.85 1.81 1.79 1.78 1.81 1.88 1.96 1.98 1.94 1.88 1.80 1.81 1.79 1.73 1.52 1.51 1.46 1.51 1.53 1.56 1.60 1.59 1.50 1.52 1.62 1.60 1.53 1.42 1.38
0.45 0.44 0.43 0.50 0.60 0.64 0.68 0.89 1.12 1.37 1.50 1.56 1.69 1.85 1.95 1.99 2.01 2.03 1.98 2.03 2.11 2.07 1.99 1.96 2.00 1.95 1.97 2.00 1.80 1.78 1.65 1.69 1.72 1.75 1.75 1.71 1.61 1.70 1.63 1.56 1.55 1.49 1.46
0.56 0.55 0.57 0.66 0.81 0.91 0.95 1.08 1.20 1.34 1.52 1.60 1.72 1.90 2.12 2.18 2.21 2.34 2.41 2.33 2.29 2.15 2.16 2.16 2.14 2.16 2.20 2.41 2.20 2.01 1.86 1.90 1.91 2.00 1.98 1.99 1.79 1.75 1.64 1.52 1.53 1.53 1.54
0.67 0.65 0.68 0.80 1.00 1.14 1.20 1.29 1.43 1.53 1.55 1.64 1.77 1.97 2.16 2.24 2.32 2.47 2.54 2.49 2.44 2.41 2.36 2.28 2.31 2.30 2.31 2.47 2.24 2.04 1.92 2.00 2.13 2.12 2.02 2.06 2.01 1.78 1.74 1.65 1.60 1.59 1.56
0.78 0.79 0.84 0.99 1.20 1.37 1.34 1.38 1.45 1.49 1.54 1.56 1.68 1.81 1.98 2.03 2.11 2.37 2.45 2.51 2.53 2.48 2.39 2.32 2.20 2.22 2.21 2.17 2.06 1.96 1.91 1.99 2.10 2.16 2.07 2.03 1.97 1.70 1.59 1.46 1.44 1.45 1.35
0.83 0.86 0.93 1.12 1.36 1.51 1.53 1.60 1.49 1.55 1.59 1.62 1.75 1.89 1.96 2.03 2.14 2.24 2.26 2.33 2.41 2.36 2.25 2.23 2.17 2.14 2.15 2.13 1.90 1.68 1.66 1.69 1.72 1.87 1.96 1.87 1.75 1.52 1.31 1.26 1.23 1.14 1.02
0.77 0.82 0.91 1.00 1.11 1.30 1.47 1.57 1.63 1.67 1.68 1.70 1.75 1.83 1.94 1.94 1.98 2.11 2.21 2.31 2.42 2.48 2.38 2.27 2.18 2.16 2.10 1.97 1.78 1.58 1.50 1.59 1.69 1.77 1.81 1.68 1.56 1.37 1.23 1.14 1.04 0.98 1.02
0.80 0.82 0.91 0.92 0.98 1.07 1.20 1.28 1.39 1.51 1.55 1.59 1.64 1.68 1.71 1.79 1.88 1.93 2.01 2.03 2.13 2.14 2.12 2.07 2.05 2.04 1.98 1.80 1.71 1.56 1.44 1.52 1.65 1.73 1.76 1.64 1.59 1.50 1.37 1.26 1.19 1.16 1.16
0.87 0.88 0.89 0.87 0.90 0.97 1.13 1.24 1.34 1.46 1.58 1.65 1.67 1.60 1.56 1.62 1.67 1.71 1.71 1.71 1.67 1.68 1.64 1.65 1.65 1.61 1.54 1.42 1.28 1.25 1.25 1.30 1.44 1.49 1.62 1.68 1.65 1.59 1.49 1.35 1.23 1.18 1.15

GEFSMW_prec_meanprecacc_264.txt.gz
Total_Precipitation_Accumulation
1.91 2.34 2.65 3.21 3.81 4.20 4.58 4.74 4.76 4.68 4.51 4.14 3.82 3.58 3.34 3.13 2.87 2.69 2.61 2.50 2.39 2.56 2.98 2.85 3.09 3.05 3.05 3.07 3.13 3.26 3.18 2.86 3.05 3.13 2.66 2.05 1.61 1.60 1.39 1.33 1.37 1.41 1.42
1.81 2.34 2.65 2.87 3.33 3.84 4.30 4.60 4.75 4.65 4.27 3.90 3.70 3.58 3.51 3.11 2.81 2.77 2.87 2.72 2.72 2.75 2.79 2.97 2.95 3.02 3.12 3.06 3.05 3.18 3.02 2.66 2.89 3.20 3.25 2.58 2.13 1.67 1.23 1.34 1.44 1.55 1.65
2.08 2.34 2.54 2.70 2.99 3.38 3.69 3.81 3.97 3.94 3.79 3.82 3.83 3.76 3.73 3.29 3.18 3.17 3.15 2.95 2.95 2.96 2.97 2.95 2.88 2.88 2.69 2.74 2.81 2.85 2.87 2.80 2.73 3.03 3.32 2.89 2.37 2.01 1.47 1.35 1.38 1.58 1.83
1.72 1.87 2.19 2.51 2.69 2.92 3.27 3.50 3.56 3.52 3.43 3.54 3.59 3.47 3.27 3.11 3.23 3.52 3.47 3.19 2.97 2.81 2.62 2.56 2.71 2.73 2.53 2.54 2.23 2.36 2.57 2.59 2.45 2.70 2.76 2.78 2.76 2.65 1.98 1.52 1.36 1.51 1.70
1.46 1.57 1.78 2.10 2.22 2.53 2.82 3.07 3.33 3.43 3.38 3.43 3.38 3.40 3.26 3.26 3.30 3.28 3.29 3.09 2.88 2.54 2.22 2.24 2.41 2.40 2.33 2.22 2.10 2.27 2.17 2.13 2.18 2.38 2.57 2.65 2.70 2.60 2.43 2.01 1.90 1.84 1.71
1.31 1.50 1.66 1.89 2.02 2.17 2.29 2.43 2.65 2.93 3.10 3.16 3.14 3.17 3.13 3.11 3.04 2.94 2.82 2.63 2.47 2.21 1.95 1.87 2.03 2.15 2.17 2.11 2.08 2.17 2.07 2.09 2.23 2.22 2.28 2.52 2.52 2.48 2.63 2.26 2.09 2.02 1.75
1.02 1.24 1.37 1.49 1.63 1.75 1.86 1.99 2.18 2.52 2.69 2.69 2.68 2.80 2.86 2.87 2.79 2.75 2.60 2.39 2.16 1.88 1.83 1.85 1.95 2.01 2.06 1.92 2.00 2.06 2.10 2.22 2.28 2.22 2.15 2.28 2.33 2.43 2.63 2.56 2.31 2.19 1.98
0.79 0.95 1.17 1.38 1.44 1.47 1.59 1.74 1.97 2.20 2.31 2.26 2.39 2.61 2.68 2.78 2.66 2.69 2.45 2.20 2.00 1.89 1.95 1.93 1.81 1.76 1.87 1.77 2.03 1.97 2.01 2.19 2.23 2.02 2.26 2.31 2.32 2.58 2.76 2.83 2.90 2.64 2.39
0.78 0.85 0.94 1.11 1.16 1.21 1.33 1.48 1.84 2.12 2.24 2.27 2.41 2.51 2.58 2.56 2.47 2.39 2.22 2.02 2.02 1.96 2.07 2.02 1.92 1.82 1.89 2.01 2.28 2.22 2.19 2.39 2.34 2.29 2.48 2.45 2.41 2.57 2.68 2.86 3.03 3.10 2.79
0.57 0.66 0.71 0.81 0.93 1.13 1.39 1.54 1.68 1.98 2.10 2.12 2.21 2.24 2.41 2.36 2.25 2.18 2.01 1.86 1.77 1.81 1.97 2.11 2.04 1.97 2.00 2.16 2.34 2.35 2.50 2.64 2.59 2.63 2.73 2.69 2.56 2.66 2.74 2.76 2.95 3.18 3.09
0.47 0.54 0.69 0.81 0.98 1.14 1.31 1.38 1.43 1.59 1.73 1.83 2.02 2.01 2.00 2.11 2.17 2.04 1.82 1.74 1.73 1.76 1.83 2.02 2.10 2.07 2.10 2.19 2.24 2.23 2.52 2.64 2.62 2.59 2.60 2.59 2.70 2.72 2.65 2.72 2.85 3.08 3.13
0.54 0.60 0.79 0.95 1.05 1.19 1.22 1.22 1.26 1.40 1.55 1.73 1.92 2.00 2.01 2.05 2.06 1.94 1.76 1.70 1.73 1.80 1.87 1.99 2.01 1.93 1.93 2.11 2.15 2.22 2.48 2.61 2.51 2.49 2.50 2.31 2.36 2.42 2.31 2.42 2.48 2.60 2.81
0.66 0.75 0.86 0.90 0.91 1.01 1.12 1.10 1.08 1.23 1.41 1.62 1.96 2.12 2.13 2.07 1.99 1.82 1.62 1.57 1.62 1.74 1.80 1.81 1.83 1.88 1.98 2.07 2.08 2.09 2.11 2.14 2.23 2.45 2.55 2.35 2.33 2.23 2.21 2.23 2.19 2.26 2.38
0.72 0.83 0.85 0.93 0.90 0.87 0.96 0.95 0.99 1.09 1.32 1.51 1.72 1.83 1.74 1.70 1.71 1.63 1.53 1.48 1.52 1.60 1.69 1.76 1.84 1.90 1.94 1.97 2.03 2.07 2.03 2.02 2.07 2.21 2.27 2.25 2.21 2.15 2.23 2.14 2.11 2.17 2.29
0.66 0.73 0.74 0.78 0.81 0.82 0.90 0.85 0.85 0.90 1.04 1.22 1.33 1.47 1.48 1.46 1.46 1.51 1.55 1.58 1.66 1.66 1.73 1.79 1.81 1.81 1.79 1.69 1.72 1.78 1.82 1.96 1.93 1.84 1.86 1.88 1.91 1.92 1.93 1.79 1.93 2.12 2.23
0.47 0.45 0.62 0.71 0.67 0.67 0.71 0.67 0.72 0.85 0.99 1.09 1.19 1.39 1.53 1.56 1.57 1.60 1.69 1.73 1.73 1.74 1.77 1.74 1.78 1.77 1.52 1.65 1.65 1.64 1.77 1.88 1.88 1.78 1.68 1.59 1.59 1.54 1.54 1.51 1.58 1.82 2.00
0.44 0.40 0.49 0.64 0.60 0.59 0.61 0.70 0.83 0.96 1.08 1.22 1.35 1.53 1.64 1.73 1.74 1.70 1.80 1.78 1.79 1.84 1.80 1.73 1.72 1.76 1.80 1.82 1.65 1.51 1.50 1.62 1.68 1.66 1.64 1.46 1.37 1.52 1.48 1.52 1.48 1.50 1.63
0.45 0.45 0.46 0.49 0.52 0.57 0.64 0.79 1.06 1.28 1.32 1.47 1.65 1.76 1.86 1.82 1.80 1.80 1.82 1.89 1.97 2.00 1.96 1.90 1.84 1.85 1.83 1.76 1.54 1.54 1.48 1.53 1.57 1.60 1.65 1.65 1.56 1.58 1.68 1.65 1.58 1.47 1.42
0.46 0.49 0.55 0.57 0.63 0.65 0.69 0.90 1.12 1.37 1.51 1.57 1.70 1.87 1.97 2.00 2.02 2.04 2.00 2.05 2.13 2.09 2.01 1.98 2.03 1.98 1.99 2.03 1.82 1.80 1.67 1.71 1.76 1.80 1.80 1.75 1.65 1.74 1.67 1.61 1.61 1.54 1.51
0.57 0.56 0.61 0.73 0.86 0.92 0.96 1.10 1.21 1.35 1.53 1.61 1.73 1.91 2.14 2.20 2.22 2.36 2.43 2.35 2.31 2.17 2.18 2.18 2.17 2.18 2.21 2.43 2.23 2.03 1.88 1.92 1.93 2.02 2.00 2.00 1.81 1.77 1.68 1.56 1.59 1.60 1.61
0.67 0.67 0.71 0.85 1.03 1.16 1.22 1.32 1.45 1.55 1.57 1.66 1.79 1.99 2.17 2.26 2.34 2.49 2.56 2.52 2.46 2.43 2.37 2.30 2.33 2.32 2.34 2.50 2.27 2.07 1.95 2.02 2.15 2.14 2.05 2.08 2.03 1.82 1.78 1.70 1.65 1.65 1.61
0.78 0.80 0.87 1.02 1.22 1.39 1.35 1.41 1.48 1.52 1.59 1.60 1.71 1.84 2.01 2.04 2.13 2.39 2.47 2.52 2.55 2.49 2.41 2.34 2.22 2.24 2.24 2.20 2.09 2.00 1.94 2.03 2.14 2.19 2.11 2.07 2.01 1.75 1.64 1.51 1.48 1.48 1.38
0.83 0.86 0.93 1.13 1.37 1.53 1.55 1.61 1.51 1.58 1.63 1.65 1.78 1.92 1.99 2.05 2.16 2.26 2.28 2.35 2.43 2.38 2.27 2.25 2.18 2.16 2.18 2.16 1.93 1.72 1.69 1.73 1.76 1.90 1.99 1.90 1.78 1.56 1.36 1.31 1.28 1.17 1.05
0.78 0.83 0.92 1.01 1.11 1.31 1.48 1.58 1.64 1.69 1.70 1.72 1.77 1.85 1.96 1.97 2.01 2.14 2.23 2.34 2.44 2.51 2.40 2.29 2.20 2.18 2.13 2.00 1.81 1.62 1.54 1.62 1.73 1.80 1.83 1.70 1.58 1.39 1.26 1.19 1.09 1.02 1.05
0.81 0.83 0.91 0.92 0.99 1.08 1.20 1.29 1.41 1.52 1.57 1.60 1.66 1.71 1.75 1.83 1.92 1.96 2.04 2.06 2.16 2.18 2.16 2.10 2.08 2.07 2.01 1.85 1.76 1.61 1.49 1.56 1.70 1.77 1.80 1.67 1.62 1.53 1.40 1.30 1.23 1.19 1.19
0.88 0.89 0.90 0.88 0.91 0.98 1.13 1.25 1.36 1.48 1.60 1.67 1.70 1.63 1.58 1.65 1.70 1.74 1.73 1.75 1.70 1.72 1.69 1.70 1.70 1.65 1.59 1.46 1.33 1.30 1.31 1.36 1.50 1.54 1.67 1.73 1.69 1.63 1.53 1.40 1.28 1.22 1.18

GEFSMW_prec_meanprecacc_270.txt.gz
Total_Precipitation_Accumulation
1.92 2.34 2.66 3.21 3.81 4.20 4.59 4.74 4.76 4.68 4.51 4.14 3.83 3.59 3.35 3.14 2.89 2.71 2.63 2.52 2.42 2.60 3.03 2.87 3.11 3.07 3.06 3.09 3.15 3.28 3.21 2.93 3.11 3.19 2.76 2.23 1.80 1.77 1.54 1.46 1.50 1.54 1.53
1.82 2.34 2.65 2.87 3.33 3.84 4.30 4.60 4.75 4.65 4.27 3.90 3.71 3.58 3.52 3.13 2.83 2.81 2.93 2.76 2.75 2.79 2.82 2.99 2.97 3.03 3.13 3.08 3.08 3.21 3.04 2.70 2.97 3.30 3.35 2.70 2.30 1.87 1.41 1.49 1.58 1.69 1.77
2.09 2.34 2.54 2.70 2.99 3.38 3.69 3.81 3.97 3.94 3.79 3.82 3.83 3.76 3.74 3.31 3.20 3.20 3.20 2.98 2.99 2.99 2.99 2.96 2.90 2.89 2.71 2.76 2.83 2.87 2.89 2.82 2.77 3.09 3.41 2.98 2.50 2.18 1.66 1.53 1.53 1.71 1.96
1.72 1.88 2.19 2.51 2.69 2.92 3.27 3.51 3.56 3.52 3.43 3.54 3.59 3.48 3.27 3.12 3.25 3.53 3.49 3.22 3.00 2.84 2.64 2.57 2.73 2.74 2.55 2.56 2.26 2.40 2.60 2.61 2.47 2.73 2.81 2.85 2.85 2.75 2.10 1.66 1.48 1.60 1.80
1.48 1.58 1.78 2.11 2.22 2.53 2.82 3.07 3.34 3.44 3.38 3.44 3.38 3.40 3.26 3.27 3.32 3.29 3.30 3.11 2.90 2.57 2.24 2.26 2.42 2.40 2.34 2.24 2.14 2.31 2.21 2.16 2.21 2.41 2.62 2.70 2.77 2.67 2.51 2.09 1.98 1.90 1.77
1.33 1.51 1.67 1.90 2.03 2.18 2.31 2.44 2.66 2.94 3.11 3.16 3.14 3.17 3.13 3.12 3.04 2.95 2.83 2.64 2.49 2.22 1.97 1.89 2.04 2.16 2.18 2.13 2.11 2.20 2.10 2.12 2.26 2.26 2.33 2.56 2.57 2.54 2.70 2.32 2.14 2.08 1.81
1.05 1.28 1.42 1.55 1.70 1.84 1.93 2.02 2.21 2.54 2.70 2.70 2.68 2.80 2.86 2.88 2.80 2.76 2.60 2.40 2.17 1.89 1.84 1.88 1.96 2.01 2.07 1.93 2.01 2.07 2.11 2.24 2.31 2.25 2.19 2.33 2.38 2.49 2.70 2.64 2.38 2.24 2.02
0.82 0.99 1.22 1.48 1.62 1.57 1.65 1.77 2.00 2.24 2.34 2.27 2.41 2.62 2.69 2.78 2.67 2.70 2.45 2.21 2.01 1.90 1.96 1.94 1.82 1.77 1.87 1.77 2.03 1.98 2.02 2.21 2.26 2.06 2.28 2.34 2.38 2.64 2.83 2.92 2.99 2.71 2.43
0.81 0.88 0.98 1.16 1.23 1.25 1.35 1.50 1.86 2.16 2.28 2.31 2.45 2.54 2.60 2.60 2.51 2.40 2.23 2.03 2.04 1.98 2.09 2.04 1.93 1.82 1.90 2.02 2.29 2.23 2.20 2.40 2.36 2.31 2.49 2.47 2.45 2.62 2.73 2.91 3.10 3.17 2.84
0.62 0.70 0.74 0.84 0.96 1.15 1.41 1.57 1.71 2.01 2.15 2.20 2.31 2.36 2.54 2.47 2.31 2.21 2.03 1.88 1.80 1.83 2.00 2.13 2.06 1.98 2.01 2.16 2.35 2.36 2.51 2.65 2.60 2.63 2.74 2.70 2.57 2.69 2.77 2.79 3.00 3.26 3.18
0.50 0.57 0.72 0.86 1.00 1.15 1.34 1.41 1.45 1.61 1.77 1.88 2.07 2.06 2.08 2.16 2.22 2.08 1.84 1.75 1.75 1.80 1.86 2.06 2.13 2.09 2.12 2.21 2.25 2.23 2.53 2.64 2.63 2.60 2.61 2.60 2.71 2.74 2.68 2.77 2.91 3.15 3.20
0.59 0.62 0.81 0.98 1.08 1.21 1.23 1.22 1.27 1.41 1.57 1.75 1.94 2.02 2.03 2.09 2.11 1.99 1.81 1.77 1.79 1.85 1.90 2.02 2.04 1.95 1.94 2.12 2.16 2.23 2.49 2.62 2.52 2.50 2.51 2.32 2.38 2.44 2.33 2.47 2.53 2.65 2.85
0.70 0.77 0.87 0.91 0.94 1.02 1.12 1.10 1.09 1.24 1.41 1.63 1.97 2.14 2.17 2.12 2.06 1.91 1.71 1.65 1.66 1.77 1.82 1.84 1.86 1.90 1.99 2.08 2.09 2.10 2.12 2.14 2.23 2.46 2.57 2.37 2.35 2.26 2.24 2.25 2.23 2.31 2.42
0.74 0.85 0.86 0.94 0.91 0.88 0.96 0.95 1.00 1.10 1.33 1.53 1.74 1.85 1.77 1.73 1.77 1.70 1.57 1.51 1.54 1.61 1.70 1.78 1.86 1.92 1.96 1.99 2.05 2.09 2.04 2.03 2.09 2.22 2.29 2.26 2.22 2.18 2.26 2.16 2.13 2.19 2.32
0.67 0.75 0.75 0.79 0.82 0.83 0.92 0.87 0.88 0.93 1.07 1.26 1.37 1.50 1.51 1.48 1.48 1.53 1.57 1.59 1.67 1.67 1.74 1.81 1.83 1.83 1.82 1.72 1.75 1.83 1.85 1.98 1.94 1.86 1.87 1.89 1.93 1.93 1.95 1.81 1.95 2.14 2.25
0.48 0.46 0.64 0.74 0.70 0.70 0.74 0.69 0.75 0.88 1.02 1.12 1.21 1.41 1.56 1.60 1.59 1.62 1.71 1.75 1.74 1.74 1.78 1.75 1.80 1.80 1.56 1.71 1.72 1.72 1.82 1.90 1.89 1.80 1.70 1.61 1.60 1.55 1.56 1.53 1.61 1.85 2.03
0.46 0.41 0.50 0.67 0.67 0.68 0.68 0.75 0.87 1.00 1.10 1.25 1.37 1.55 1.66 1.76 1.77 1.73 1.83 1.80 1.80 1.85 1.81 1.74 1.73 1.78 1.84 1.89 1.72 1.57 1.55 1.65 1.70 1.68 1.66 1.47 1.38 1.53 1.50 1.54 1.51 1.53 1.66
0.46 0.46 0.47 0.50 0.56 0.63 0.68 0.82 1.10 1.35 1.39 1.52 1.69 1.78 1.87 1.84 1.82 1.83 1.85 1.92 2.01 2.04 2.00 1.93 1.86 1.87 1.85 1.81 1.59 1.59 1.55 1.61 1.63 1.64 1.67 1.66 1.57 1.59 1.70 1.67 1.60 1.50 1.45
0.47 0.50 0.55 0.58 0.66 0.72 0.75 0.94 1.18 1.47 1.63 1.65 1.74 1.90 1.99 2.03 2.05 2.08 2.04 2.10 2.21 2.17 2.07 2.03 2.06 2.00 2.01 2.06 1.87 1.88 1.76 1.79 1.81 1.84 1.82 1.77 1.66 1.76 1.69 1.63 1.62 1.56 1.54
0.59 0.61 0.64 0.76 0.93 1.00 1.02 1.14 1.26 1.40 1.58 1.65 1.76 1.94 2.18 2.23 2.26 2.40 2.47 2.39 2.35 2.21 2.22 2.22 2.20 2.20 2.24 2.46 2.27 2.08 1.94 1.97 1.97 2.04 2.02 2.03 1.84 1.80 1.70 1.58 1.61 1.62 1.63
0.70 0.69 0.72 0.88 1.10 1.23 1.26 1.36 1.49 1.58 1.59 1.68 1.81 2.02 2.21 2.30 2.37 2.52 2.59 2.54 2.49 2.46 2.40 2.34 2.38 2.37 2.37 2.53 2.30 2.10 1.98 2.05 2.18 2.17 2.07 2.10 2.07 1.86 1.84 1.76 1.69 1.67 1.63
0.81 0.84 0.89 1.03 1.23 1.40 1.37 1.43 1.50 1.55 1.61 1.62 1.73 1.87 2.03 2.07 2.16 2.41 2.49 2.55 2.58 2.52 2.43 2.37 2.25 2.28 2.28 2.23 2.12 2.03 1.97 2.06 2.17 2.23 2.14 2.11 2.07 1.83 1.72 1.57 1.53 1.52 1.41
0.84 0.91 0.97 1.14 1.37 1.53 1.55 1.62 1.52 1.60 1.64 1.67 1.80 1.94 2.01 2.07 2.17 2.27 2.30 2.37 2.45 2.40 2.30 2.31 2.25 2.19 2.21 2.20 1.97 1.76 1.74 1.78 1.81 1.95 2.06 1.98 1.86 1.64 1.42 1.34 1.30 1.19 1.07
0.78 0.84 0.95 1.02 1.11 1.31 1.49 1.59 1.66 1.71 1.73 1.74 1.78 1.87 1.98 1.98 2.03 2.16 2.25 2.35 2.45 2.52 2.42 2.31 2.22 2.20 2.16 2.03 1.84 1.66 1.60 1.70 1.81 1.90 1.95 1.81 1.68 1.47 1.32 1.22 1.12 1.05 1.07
0.81 0.83 0.92 0.94 1.00 1.09 1.22 1.31 1.44 1.57 1.63 1.68 1.72 1.73 1.76 1.85 1.94 1.98 2.06 2.06 2.16 2.20 2.19 2.13 2.10 2.10 2.04 1.88 1.80 1.65 1.54 1.64 1.81 1.89 1.91 1.76 1.68 1.58 1.45 1.34 1.26 1.22 1.22
0.88 0.90 0.91 0.89 0.93 0.99 1.15 1.26 1.37 1.52 1.64 1.71 1.74 1.66 1.61 1.68 1.73 1.78 1.76 1.76 1.71 1.73 1.71 1.72 1.73 1.69 1.62 1.49 1.37 1.37 1.40 1.46 1.61 1.65 1.75 1.80 1.74 1.67 1.56 1.43 1.32 1.25 1.21

GEFSMW_prec_meanprecacc_276.txt.gz
Total_Precipitation_Accumulation
1.94 2.35 2.66 3.22 3.82 4.20 4.59 4.75 4.77 4.69 4.52 4.17 3.86 3.61 3.37 3.17 2.91 2.74 2.66 2.56 2.46 2.65 3.07 2.90 3.13 3.09 3.08 3.11 3.17 3.30 3.23 2.95 3.13 3.21 2.78 2.24 1.82 1.79 1.57 1.51 1.55 1.59 1.58
1.84 2.35 2.66 2.87 3.34 3.85 4.31 4.61 4.76 4.65 4.28 3.90 3.73 3.62 3.56 3.17 2.88 2.85 2.98 2.81 2.82 2.85 2.86 3.02 2.99 3.04 3.14 3.10 3.10 3.24 3.07 2.72 2.98 3.32 3.37 2.72 2.32 1.89 1.44 1.54 1.64 1.76 1.83
2.12 2.37 2.56 2.72 3.01 3.40 3.70 3.82 3.98 3.94 3.79 3.83 3.84 3.78 3.76 3.33 3.23 3.23 3.23 3.02 3.04 3.06 3.04 3.00 2.91 2.91 2.73 2.78 2.86 2.90 2.92 2.85 2.79 3.11 3.43 3.01 2.53 2.20 1.69 1.57 1.59 1.81 2.07
1.77 1.92 2.23 2.54 2.72 2.96 3.29 3.53 3.58 3.53 3.44 3.54 3.60 3.49 3.29 3.13 3.28 3.58 3.52 3.24 3.03 2.87 2.68 2.62 2.76 2.77 2.57 2.58 2.28 2.42 2.62 2.63 2.49 2.76 2.84 2.87 2.86 2.78 2.14 1.72 1.57 1.71 1.91
1.52 1.63 1.84 2.16 2.28 2.58 2.86 3.10 3.36 3.45 3.40 3.45 3.40 3.41 3.27 3.28 3.35 3.34 3.33 3.12 2.93 2.59 2.27 2.30 2.47 2.45 2.37 2.27 2.16 2.32 2.22 2.19 2.23 2.44 2.64 2.73 2.79 2.69 2.54 2.14 2.07 2.01 1.90
1.36 1.55 1.71 1.97 2.11 2.24 2.37 2.51 2.70 2.97 3.14 3.20 3.17 3.20 3.15 3.13 3.06 2.98 2.85 2.65 2.50 2.25 1.99 1.92 2.07 2.19 2.21 2.15 2.14 2.22 2.12 2.14 2.27 2.27 2.34 2.58 2.60 2.58 2.73 2.36 2.20 2.16 1.92
1.07 1.29 1.44 1.59 1.77 1.90 1.99 2.08 2.27 2.60 2.76 2.75 2.74 2.86 2.92 2.91 2.83 2.80 2.64 2.42 2.19 1.92 1.88 1.91 1.98 2.03 2.07 1.94 2.02 2.09 2.13 2.26 2.32 2.25 2.20 2.34 2.41 2.53 2.76 2.70 2.44 2.31 2.12
0.83 0.99 1.23 1.50 1.64 1.61 1.69 1.79 2.03 2.29 2.39 2.33 2.46 2.69 2.76 2.84 2.74 2.75 2.48 2.22 2.02 1.92 1.99 1.96 1.84 1.79 1.89 1.79 2.04 1.99 2.04 2.23 2.27 2.06 2.29 2.35 2.38 2.66 2.86 2.96 3.05 2.77 2.50
0.82 0.89 0.98 1.16 1.25 1.27 1.36 1.51 1.88 2.20 2.32 2.36 2.49 2.59 2.67 2.66 2.57 2.43 2.25 2.04 2.05 2.00 2.11 2.06 1.94 1.84 1.92 2.03 2.30 2.23 2.20 2.41 2.37 2.32 2.50 2.48 2.46 2.63 2.74 2.93 3.15 3.23 2.90
0.62 0.70 0.74 0.85 0.97 1.17 1.42 1.58 1.72 2.02 2.17 2.22 2.32 2.37 2.57 2.50 2.32 2.22 2.04 1.88 1.80 1.84 2.01 2.15 2.07 2.00 2.03 2.18 2.36 2.37 2.52 2.66 2.61 2.65 2.75 2.71 2.58 2.70 2.78 2.80 3.03 3.30 3.21
0.51 0.57 0.72 0.86 1.01 1.17 1.35 1.42 1.46 1.63 1.78 1.90 2.08 2.07 2.08 2.17 2.23 2.08 1.85 1.76 1.75 1.81 1.88 2.07 2.14 2.11 2.15 2.23 2.27 2.26 2.55 2.66 2.64 2.61 2.62 2.61 2.73 2.75 2.69 2.78 2.93 3.18 3.25
0.60 0.63 0.82 0.99 1.09 1.22 1.25 1.25 1.29 1.42 1.58 1.76 1.95 2.02 2.03 2.09 2.12 2.00 1.83 1.78 1.81 1.88 1.91 2.03 2.05 1.97 1.97 2.15 2.19 2.25 2.52 2.65 2.55 2.53 2.54 2.34 2.39 2.44 2.34 2.48 2.54 2.67 2.91
0.70 0.78 0.88 0.92 0.95 1.04 1.16 1.16 1.12 1.26 1.43 1.65 1.99 2.15 2.18 2.13 2.07 1.92 1.72 1.66 1.67 1.78 1.83 1.84 1.87 1.91 2.01 2.11 2.12 2.12 2.15 2.17 2.26 2.48 2.59 2.39 2.36 2.27 2.25 2.26 2.24 2.32 2.45
0.74 0.85 0.87 0.95 0.92 0.90 0.99 0.98 1.01 1.12 1.35 1.56 1.76 1.87 1.78 1.75 1.79 1.72 1.59 1.52 1.55 1.62 1.70 1.78 1.88 1.93 1.98 2.01 2.08 2.12 2.07 2.06 2.11 2.25 2.31 2.28 2.24 2.20 2.28 2.17 2.14 2.21 2.34
0.67 0.75 0.75 0.80 0.83 0.84 0.93 0.88 0.89 0.95 1.10 1.29 1.39 1.51 1.53 1.51 1.51 1.57 1.60 1.61 1.69 1.68 1.76 1.82 1.84 1.84 1.83 1.75 1.78 1.87 1.89 2.02 1.98 1.89 1.90 1.93 1.97 1.96 1.97 1.82 1.96 2.16 2.27
0.48 0.47 0.64 0.74 0.71 0.71 0.75 0.70 0.75 0.89 1.04 1.14 1.24 1.45 1.58 1.62 1.62 1.66 1.75 1.78 1.76 1.77 1.80 1.77 1.81 1.82 1.59 1.75 1.75 1.75 1.85 1.94 1.93 1.84 1.74 1.65 1.64 1.58 1.58 1.55 1.63 1.87 2.06
0.46 0.42 0.51 0.67 0.68 0.69 0.68 0.76 0.88 1.01 1.12 1.26 1.40 1.57 1.68 1.78 1.79 1.76 1.87 1.83 1.83 1.88 1.84 1.78 1.78 1.82 1.89 1.92 1.74 1.59 1.57 1.68 1.73 1.71 1.70 1.50 1.40 1.55 1.51 1.56 1.53 1.55 1.68
0.47 0.46 0.47 0.50 0.56 0.63 0.68 0.82 1.11 1.35 1.41 1.55 1.73 1.82 1.90 1.86 1.84 1.85 1.88 1.96 2.04 2.07 2.05 2.00 1.91 1.90 1.88 1.84 1.62 1.62 1.57 1.63 1.64 1.66 1.70 1.68 1.58 1.61 1.71 1.69 1.62 1.51 1.46
0.48 0.51 0.56 0.58 0.67 0.73 0.75 0.95 1.18 1.48 1.65 1.70 1.80 1.93 2.02 2.05 2.07 2.09 2.06 2.13 2.25 2.20 2.12 2.07 2.08 2.01 2.02 2.08 1.89 1.90 1.77 1.79 1.82 1.84 1.84 1.79 1.68 1.77 1.71 1.65 1.65 1.59 1.56
0.60 0.61 0.64 0.76 0.94 1.01 1.02 1.15 1.27 1.42 1.60 1.67 1.78 1.96 2.19 2.24 2.26 2.42 2.49 2.43 2.38 2.24 2.25 2.24 2.22 2.21 2.25 2.47 2.28 2.10 1.96 1.98 1.98 2.05 2.03 2.05 1.86 1.83 1.74 1.63 1.65 1.66 1.67
0.70 0.69 0.73 0.88 1.11 1.24 1.27 1.37 1.51 1.60 1.61 1.69 1.82 2.03 2.22 2.31 2.38 2.54 2.61 2.56 2.51 2.46 2.41 2.35 2.40 2.40 2.38 2.54 2.31 2.12 2.00 2.06 2.19 2.19 2.09 2.11 2.09 1.90 1.88 1.81 1.74 1.72 1.69
0.81 0.84 0.89 1.04 1.24 1.41 1.38 1.44 1.52 1.57 1.62 1.63 1.74 1.88 2.06 2.09 2.17 2.43 2.52 2.57 2.59 2.53 2.44 2.38 2.27 2.33 2.31 2.25 2.14 2.05 1.99 2.08 2.19 2.25 2.16 2.12 2.10 1.88 1.78 1.63 1.60 1.62 1.51
0.85 0.91 0.98 1.14 1.37 1.53 1.56 1.63 1.53 1.61 1.66 1.68 1.82 1.97 2.05 2.09 2.20 2.30 2.33 2.40 2.46 2.41 2.30 2.33 2.28 2.23 2.25 2.24 2.00 1.79 1.76 1.80 1.84 1.97 2.09 2.02 1.91 1.71 1.51 1.46 1.41 1.29 1.14
0.79 0.84 0.95 1.02 1.12 1.32 1.49 1.60 1.67 1.72 1.74 1.76 1.82 1.91 2.03 2.04 2.08 2.20 2.29 2.38 2.47 2.54 2.44 2.32 2.23 2.22 2.17 2.05 1.86 1.68 1.61 1.71 1.84 1.93 1.99 1.87 1.75 1.55 1.40 1.30 1.16 1.08 1.10
0.82 0.84 0.92 0.94 1.00 1.10 1.22 1.32 1.45 1.58 1.64 1.70 1.76 1.78 1.82 1.92 2.01 2.03 2.09 2.08 2.17 2.21 2.20 2.14 2.11 2.11 2.06 1.90 1.82 1.66 1.55 1.66 1.84 1.93 1.95 1.80 1.72 1.62 1.50 1.40 1.31 1.26 1.26
0.89 0.90 0.91 0.90 0.93 1.00 1.16 1.27 1.38 1.53 1.65 1.72 1.75 1.68 1.64 1.70 1.76 1.80 1.77 1.77 1.72 1.74 1.72 1.73 1.74 1.70 1.63 1.51 1.39 1.38 1.41 1.48 1.63 1.67 1.77 1.82 1.76 1.70 1.59 1.48 1.37 1.30 1.25

GEFSMW_prec_meanprecacc_282.txt.gz
Total_Precipitation_Accumulation
1.96 2.38 2.67 3.22 3.82 4.20 4.60 4.76 4.78 4.70 4.54 4.20 3.91 3.68 3.44 3.22 2.96 2.78 2.69 2.60 2.51 2.71 3.14 2.95 3.19 3.14 3.12 3.14 3.20 3.33 3.27 2.98 3.17 3.24 2.81 2.25 1.83 1.80 1.58 1.52 1.56 1.61 1.60
1.86 2.37 2.66 2.88 3.34 3.85 4.32 4.62 4.77 4.66 4.29 3.94 3.77 3.67 3.64 3.26 2.95 2.92 3.05 2.87 2.89 2.92 2.94 3.11 3.06 3.10 3.21 3.16 3.16 3.30 3.11 2.76 3.02 3.36 3.42 2.76 2.35 1.90 1.44 1.55 1.66 1.78 1.86
2.13 2.38 2.56 2.72 3.01 3.41 3.72 3.83 3.99 3.95 3.80 3.84 3.87 3.82 3.84 3.42 3.34 3.34 3.34 3.12 3.13 3.14 3.13 3.08 2.96 2.96 2.77 2.83 2.92 2.95 2.98 2.90 2.82 3.15 3.48 3.05 2.57 2.23 1.70 1.58 1.60 1.82 2.09
1.78 1.93 2.24 2.55 2.73 2.97 3.30 3.53 3.58 3.53 3.45 3.56 3.62 3.53 3.35 3.21 3.36 3.66 3.59 3.29 3.08 2.94 2.75 2.68 2.82 2.83 2.63 2.64 2.33 2.46 2.67 2.68 2.53 2.79 2.88 2.92 2.90 2.82 2.16 1.73 1.57 1.72 1.93
1.53 1.64 1.84 2.17 2.28 2.58 2.86 3.10 3.36 3.46 3.41 3.47 3.43 3.46 3.30 3.30 3.37 3.36 3.37 3.15 2.96 2.63 2.30 2.33 2.52 2.49 2.41 2.31 2.20 2.35 2.26 2.22 2.27 2.48 2.68 2.76 2.82 2.71 2.56 2.17 2.09 2.02 1.90
1.37 1.55 1.71 1.98 2.12 2.24 2.37 2.51 2.71 2.98 3.15 3.21 3.19 3.22 3.16 3.14 3.07 3.00 2.87 2.68 2.53 2.28 2.02 1.94 2.10 2.21 2.23 2.19 2.18 2.25 2.15 2.18 2.32 2.32 2.38 2.61 2.64 2.60 2.76 2.39 2.23 2.18 1.94
1.07 1.29 1.44 1.59 1.77 1.90 1.99 2.08 2.28 2.60 2.76 2.76 2.75 2.87 2.93 2.92 2.84 2.81 2.65 2.44 2.21 1.95 1.90 1.93 2.01 2.05 2.09 1.96 2.05 2.12 2.16 2.30 2.36 2.29 2.24 2.37 2.44 2.56 2.79 2.73 2.47 2.33 2.13
0.83 0.99 1.23 1.50 1.65 1.61 1.69 1.79 2.04 2.29 2.40 2.34 2.47 2.70 2.77 2.85 2.74 2.75 2.49 2.24 2.04 1.95 2.02 1.99 1.87 1.81 1.91 1.81 2.06 2.00 2.06 2.26 2.31 2.09 2.31 2.37 2.41 2.69 2.90 3.00 3.09 2.80 2.52
0.82 0.89 0.98 1.17 1.25 1.27 1.36 1.51 1.89 2.20 2.34 2.38 2.50 2.60 2.68 2.67 2.58 2.44 2.25 2.05 2.06 2.01 2.13 2.08 1.96 1.85 1.93 2.05 2.32 2.26 2.22 2.44 2.40 2.35 2.53 2.51 2.48 2.65 2.77 2.96 3.17 3.26 2.94
0.62 0.70 0.74 0.86 0.98 1.17 1.42 1.59 1.72 2.03 2.18 2.23 2.33 2.37 2.58 2.51 2.33 2.23 2.04 1.89 1.81 1.85 2.03 2.16 2.08 2.01 2.04 2.19 2.38 2.39 2.54 2.67 2.64 2.67 2.77 2.74 2.61 2.72 2.80 2.83 3.06 3.33 3.25
0.51 0.57 0.73 0.86 1.01 1.17 1.35 1.42 1.47 1.63 1.79 1.90 2.08 2.07 2.09 2.17 2.23 2.09 1.85 1.77 1.77 1.82 1.89 2.09 2.16 2.13 2.16 2.24 2.29 2.27 2.57 2.69 2.68 2.64 2.65 2.64 2.76 2.79 2.72 2.82 2.98 3.23 3.29
0.60 0.63 0.82 0.99 1.09 1.23 1.25 1.26 1.30 1.43 1.59 1.77 1.96 2.03 2.04 2.10 2.13 2.01 1.84 1.79 1.82 1.88 1.92 2.04 2.07 1.98 1.97 2.15 2.20 2.26 2.54 2.68 2.59 2.55 2.56 2.36 2.42 2.48 2.38 2.51 2.59 2.72 2.95
0.70 0.78 0.88 0.93 0.96 1.04 1.16 1.16 1.12 1.26 1.44 1.65 1.99 2.16 2.18 2.14 2.09 1.94 1.73 1.67 1.68 1.78 1.83 1.86 1.88 1.92 2.02 2.12 2.13 2.14 2.17 2.19 2.29 2.50 2.61 2.41 2.38 2.29 2.28 2.30 2.28 2.36 2.48
0.74 0.85 0.87 0.95 0.93 0.90 0.99 0.98 1.02 1.12 1.36 1.56 1.77 1.88 1.79 1.75 1.80 1.73 1.61 1.54 1.56 1.63 1.72 1.79 1.89 1.94 1.99 2.03 2.10 2.17 2.10 2.08 2.13 2.27 2.33 2.31 2.27 2.23 2.31 2.21 2.18 2.25 2.38
0.67 0.75 0.76 0.80 0.83 0.85 0.93 0.88 0.90 0.95 1.10 1.29 1.40 1.52 1.54 1.52 1.52 1.58 1.61 1.63 1.72 1.70 1.77 1.84 1.86 1.86 1.85 1.78 1.81 1.90 1.92 2.04 2.00 1.91 1.92 1.94 1.98 1.98 1.99 1.85 2.00 2.20 2.31
0.48 0.47 0.64 0.74 0.71 0.71 0.75 0.70 0.75 0.89 1.04 1.14 1.25 1.46 1.60 1.63 1.62 1.66 1.75 1.79 1.78 1.79 1.82 1.78 1.83 1.84 1.60 1.77 1.79 1.79 1.89 1.96 1.96 1.87 1.77 1.67 1.66 1.60 1.60 1.56 1.64 1.89 2.08
0.46 0.42 0.51 0.68 0.68 0.69 0.68 0.76 0.89 1.01 1.12 1.27 1.40 1.58 1.69 1.78 1.79 1.76 1.87 1.83 1.84 1.90 1.86 1.79 1.79 1.83 1.89 1.93 1.77 1.62 1.59 1.70 1.76 1.74 1.72 1.52 1.42 1.56 1.53 1.57 1.55 1.56 1.70
0.47 0.47 0.48 0.51 0.57 0.63 0.69 0.83 1.11 1.35 1.41 1.55 1.73 1.82 1.91 1.86 1.84 1.86 1.89 1.97 2.05 2.09 2.06 2.01 1.92 1.91 1.88 1.85 1.65 1.64 1.59 1.64 1.65 1.68 1.72 1.70 1.60 1.62 1.72 1.70 1.64 1.53 1.48
0.49 0.52 0.57 0.59 0.67 0.73 0.76 0.95 1.18 1.48 1.65 1.70 1.80 1.94 2.02 2.05 2.07 2.10 2.07 2.14 2.26 2.22 2.13 2.08 2.09 2.02 2.03 2.09 1.91 1.92 1.78 1.80 1.82 1.85 1.85 1.80 1.69 1.79 1.73 1.66 1.66 1.60 1.57
0.61 0.62 0.65 0.77 0.94 1.01 1.02 1.15 1.27 1.42 1.61 1.68 1.80 1.97 2.20 2.25 2.28 2.42 2.50 2.44 2.39 2.24 2.26 2.25 2.22 2.21 2.25 2.48 2.29 2.11 1.97 1.99 1.98 2.06 2.04 2.06 1.88 1.86 1.77 1.64 1.66 1.67 1.68
0.72 0.70 0.73 0.88 1.11 1.24 1.28 1.38 1.51 1.61 1.62 1.70 1.85 2.05 2.23 2.32 2.39 2.55 2.62 2.57 2.52 2.48 2.43 2.35 2.41 2.40 2.38 2.54 2.31 2.13 2.01 2.07 2.20 2.19 2.10 2.12 2.11 1.93 1.92 1.83 1.75 1.73 1.71
0.82 0.85 0.90 1.04 1.25 1.42 1.39 1.45 1.54 1.58 1.63 1.64 1.75 1.89 2.06 2.09 2.18 2.44 2.53 2.60 2.61 2.55 2.45 2.40 2.28 2.33 2.32 2.26 2.14 2.05 2.00 2.09 2.20 2.25 2.17 2.13 2.11 1.90 1.82 1.67 1.63 1.65 1.53
0.85 0.92 0.98 1.14 1.38 1.54 1.57 1.64 1.54 1.62 1.67 1.69 1.82 1.97 2.05 2.10 2.20 2.30 2.34 2.42 2.48 2.42 2.32 2.34 2.29 2.25 2.27 2.25 2.01 1.81 1.77 1.81 1.84 1.98 2.10 2.03 1.93 1.73 1.54 1.50 1.45 1.33 1.18
0.79 0.85 0.96 1.03 1.13 1.33 1.50 1.61 1.67 1.73 1.75 1.76 1.82 1.91 2.03 2.04 2.08 2.21 2.30 2.39 2.48 2.55 2.45 2.34 2.24 2.23 2.19 2.07 1.88 1.69 1.62 1.72 1.84 1.94 2.00 1.88 1.76 1.57 1.42 1.32 1.21 1.12 1.13
0.83 0.85 0.93 0.96 1.01 1.10 1.23 1.32 1.45 1.58 1.64 1.70 1.76 1.78 1.83 1.92 2.01 2.04 2.11 2.10 2.20 2.24 2.22 2.16 2.13 2.13 2.07 1.91 1.83 1.67 1.56 1.67 1.85 1.93 1.95 1.81 1.73 1.64 1.51 1.41 1.34 1.30 1.29
0.90 0.91 0.93 0.91 0.94 1.00 1.16 1.27 1.38 1.53 1.65 1.72 1.75 1.68 1.64 1.71 1.76 1.81 1.78 1.79 1.75 1.78 1.76 1.77 1.77 1.73 1.65 1.53 1.40 1.39 1.42 1.49 1.64 1.68 1.78 1.83 1.78 1.71 1.61 1.49 1.39 1.32 1.28